EW2270 Weather Reports


time (UTC)temp
C
wind
direction
speed
KPH
gust
KPH
rain 1hr
cm
rain 24hr
cm
rain mn
cm
humidity
%
barometer
mb
20260904144603 8 108 0.0 0.0 0.00 0.03 0.00 80 1012.6
20260904143059 6 108 0.0 0.0 0.00 0.03 0.00 84 1012.5
20260904141559 6 108 0.0 0.0 0.00 0.03 0.00 83 1012.4
20260904140105 6 106 0.0 0.0 0.00 0.03 0.00 83 1012.1
20260904134604 5 106 0.0 0.0 0.00 0.03 0.00 86 1011.9
20260904133054 5 106 0.0 0.0 0.00 0.03 0.00 83 1011.7
20260904131548 6 106 0.0 0.0 0.00 0.03 0.00 82 1011.8
20260904130052 7 115 1.6 9.7 0.00 0.03 0.00 78 1011.5
20260904124553 6 101 4.8 6.4 0.00 0.03 0.00 81 1011.4
20260904123043 6 99 1.6 3.2 0.00 0.03 0.00 83 1011.4
20260904121540 7 99 0.0 0.0 0.00 0.03 0.00 81 1011.4
20260904120038 7 99 0.0 1.6 0.00 0.03 0.00 79 1011.3
20260904114538 7 99 1.6 4.8 0.00 0.03 0.00 82 1011.0
20260904113036 7 171 0.0 0.0 0.00 0.03 0.00 81 1010.9
20260904111539 7 171 0.0 3.2 0.00 0.03 0.00 80 1010.6
20260904110030 7 341 0.0 3.2 0.00 0.05 0.00 81 1010.4
20260904104532 7 301 1.6 4.8 0.00 0.05 0.00 81 1010.5
20260904103026 7 270 1.6 8.0 0.00 0.05 0.00 79 1010.2
20260904101522 8 304 0.0 4.8 0.00 0.05 0.00 79 1010.0
20260904100019 8 101 3.2 9.7 0.00 0.25 0.00 75 1009.4
20260904094517 9 108 0.0 3.2 0.00 0.25 0.00 73 1009.6
20260904093016 8 110 3.2 4.8 0.00 0.25 0.00 75 1009.7
20260904091515 9 110 1.6 3.2 0.00 0.25 0.00 71 1009.6
20260904090013 10 110 0.0 1.6 0.00 0.28 0.00 70 1009.7
20260904084513 9 110 0.0 4.8 0.00 0.28 0.00 71 1009.7
20260904083009 9 250 0.0 0.0 0.00 0.28 0.00 70 1009.3
20260904081508 10 250 0.0 1.6 0.00 0.28 0.00 68 1009.2
20260904080003 10 250 0.0 3.2 0.00 0.28 0.00 66 1009.3
20260904074612 11 257 1.6 11.3 0.00 0.28 0.00 65 1009.1
20260904073101 11 282 11.3 14.5 0.00 0.28 0.00 61 1009.0
20260904071556 12 126 6.4 16.1 0.00 0.28 0.00 58 1008.7
20260904070053 12 109 12.9 19.3 0.00 0.28 0.00 58 1008.5
20260904064551 12 109 11.3 22.5 0.00 0.51 0.28 59 1008.6
20260904063101 12 111 16.1 25.7 0.00 0.51 0.28 57 1008.5
20260904061550 12 117 16.1 24.1 0.00 0.51 0.28 58 1008.6
20260904060048 12 137 19.3 25.7 0.00 0.51 0.28 58 1008.6
20260904054548 12 117 12.9 27.4 0.00 0.79 0.28 59 1008.4
20260904053049 12 115 11.3 22.5 0.00 0.79 0.28 60 1008.4
20260904051559 12 122 9.7 29.0 0.00 0.79 0.28 60 1008.6
20260904050045 12 115 14.5 27.4 0.00 0.79 0.28 60 1008.8
20260904044543 13 103 19.3 29.0 0.00 0.97 0.28 57 1009.0
20260904043042 13 236 1.6 12.9 0.00 0.97 0.28 56 1008.8
20260904041544 13 90 8.0 16.1 0.00 0.97 0.28 55 1008.5
20260904040044 13 111 6.4 16.1 0.00 1.07 0.28 55 1008.4
20260904034539 14 115 16.1 25.7 0.00 1.07 0.28 52 1008.2
20260904033038 14 98 14.5 32.2 0.00 1.07 0.28 52 1008.1
20260904031536 14 103 16.1 25.7 0.00 1.07 0.28 53 1008.2
20260904030034 14 113 17.7 27.4 0.00 1.07 0.28 52 1007.8
20260904024534 15 103 20.9 37.0 0.00 1.07 0.28 51 1007.7
20260904023031 15 108 14.5 29.0 0.00 1.07 0.28 51 1007.8
20260904021536 15 139 11.3 24.1 0.00 1.07 0.28 50 1007.8
20260904020029 15 103 9.7 20.9 0.00 1.07 0.28 47 1007.8
20260904014531 16 118 11.3 22.5 0.00 1.07 0.28 57 1007.7
20260904013028 16 77 12.9 22.5 0.00 1.07 0.28 58 1007.6
20260904011533 16 79 9.7 16.1 0.00 1.07 0.28 59 1007.9
20260904010039 16 311 1.6 6.4 0.00 1.07 0.28 59 1008.0
20260904004527 16 11 0.0 3.2 0.00 1.07 0.28 58 1007.7
20260904003027 16 12 1.6 9.7 0.00 1.07 0.28 54 1007.7
20260904001525 16 63 4.8 9.7 0.00 1.07 0.28 54 1007.6
20260904000030 17 34 3.2 6.4 0.00 1.07 0.28 52 1007.8
20260903234522 17 30 1.6 6.4 0.00 1.07 0.28 51 1008.0
20260903233022 17 1 1.6 6.4 0.00 1.07 0.28 51 1008.0
20260903231521 17 360 4.8 9.7 0.00 1.07 0.28 47 1008.1
20260903230023 17 17 6.4 9.7 0.00 1.07 0.28 49 1008.1
20260903224520 17 337 4.8 9.7 0.00 1.07 0.28 48 1008.3
20260903223030 17 360 4.8 8.0 0.00 1.07 0.28 49 1008.5
20260903221520 17 316 4.8 11.3 0.00 1.07 0.28 49 1008.5
20260903220019 17 9 6.4 12.9 0.00 1.07 0.28 49 1008.3
20260903214520 17 15 3.2 11.3 0.00 1.07 0.28 48 1008.5
20260903213019 17 342 3.2 9.7 0.00 1.07 0.28 47 1009.0
20260903211517 17 310 1.6 8.0 0.00 1.07 0.28 47 1009.2
20260903210017 17 34 1.6 9.7 0.00 1.07 0.28 48 1008.9
20260903204516 17 95 0.0 9.7 0.00 1.07 0.28 47 1009.1
20260903203019 17 34 0.0 9.7 0.00 1.07 0.28 48 1009.6
20260903201512 16 310 6.4 9.7 0.00 1.07 0.28 48 1009.6
20260903200012 16 10 4.8 9.7 0.00 1.07 0.28 49 1009.7
20260903194511 16 347 3.2 9.7 0.00 1.07 0.28 49 1009.9
20260903193010 16 321 8.0 9.7 0.00 1.07 0.28 49 1009.6
20260903191510 16 315 3.2 9.7 0.00 1.07 0.28 48 1009.9
20260903190007 16 307 3.2 8.0 0.00 1.07 0.28 50 1009.9
20260903184506 16 320 3.2 8.0 0.00 1.07 0.28 52 1010.2
20260903183005 15 321 4.8 9.7 0.00 1.07 0.28 52 1010.1
20260903181504 15 301 6.4 9.7 0.00 1.07 0.28 51 1010.1
20260903180004 15 342 4.8 11.3 0.00 1.07 0.28 53 1010.2
20260903174507 15 320 6.4 12.9 0.00 1.07 0.28 51 1010.2
20260903173002 15 305 4.8 12.9 0.00 1.07 0.28 56 1010.3
20260903171500 15 276 4.8 11.3 0.00 1.07 0.28 57 1010.4
20260903170100 15 252 8.0 16.1 0.00 1.07 0.28 55 1010.3
20260903164558 15 281 8.0 14.5 0.00 1.07 0.28 54 1010.2
20260903163155 15 222 4.8 12.9 0.00 1.07 0.28 59 1010.3
20260903161554 15 214 8.0 12.9 0.00 1.07 0.28 61 1010.3
20260903160105 15 185 6.4 11.3 0.00 1.07 0.28 64 1010.4
20260903154551 15 172 8.0 16.1 0.00 1.07 0.28 68 1010.4
20260903153048 14 174 3.2 9.7 0.00 1.07 0.28 70 1010.4
20260903151543 13 243 0.0 6.4 0.00 1.07 0.28 79 1010.5
20260903150040 13 108 0.0 3.2 0.03 1.07 0.28 80 1010.5